Regional Weather Roundup
Issued by NWS Charleston, SC

Current Version | Previous Version | Graphics & Text | Print | Product List | Glossary On
Versions: 1 2 3 4 5 6 7 8 9 10 11 12 13 14 15 16 17 18 19 20 21 22 23 24 25 26 27 28 29 30 31 32 33 34 35 36 37 38 39 40 41 42 43 44 45 46 47 48 49 50
002 ASUS42 KCHS 091927 RWRCHS REGIONAL WEATHER ROUNDUP NATIONAL WEATHER SERVICE CHARLESTON SC 200 PM EST FRI DEC 09 2016 NOTE: "FAIR" INDICATES FEW OR NO CLOUDS BELOW 12,000 FEET WITH NO SIGNIFICANT WEATHER AND/OR OBSTRUCTIONS TO VISIBILITY. NOT ALL STATIONS ARE QUALITY CONTROLLED. USE DATA WITH CAUTION... ESPECIALLY DEWPOINT OBSERVATIONS. SCZ027-030-031-034>040-042>050-092000- ...SOUTHEAST SOUTH CAROLINA... CITY SKY/WX TMP DP RH WIND PRES REMARKS N CHARLESTON SUNNY 50 18 28 N12 30.36F WATERFRONT PRK N/A 48 26 42 N9 30.36F MOUNT PLEASANT FAIR 50 21 32 N7 30.35F JOHNS ISLAND FAIR 50 23 34 NW10 30.36S PINOPOLIS N/A 45 25 45 N8 30.30F MONCKS CORNER FAIR 46 19 34 N6 30.37S SUMMERVILLE FAIR 48 23 37 NW6 30.38S BEAUFORT MCAS SUNNY 52 19 27 N13 30.36F BEAUFORT ARPT FAIR 50 23 34 N9 30.36S HILTON HEAD IS SUNNY 54 23 30 N7 30.36F WALTERBORO CLEAR 50 14 23 N8 30.38S ALLENDALE FAIR 48 16 27 N5G13 30.37S ...SOUTHERN MIDLANDS AND PEE DEE... CITY SKY/WX TMP DP RH WIND PRES REMARKS GEORGETOWN NOT AVBL KINGSTREE FAIR 43 18 36 NW7 30.37S ORANGEBURG SUNNY 47 16 29 NW8 30.37F BARNWELL NOT AVBL AIKEN FAIR 46 18 31 N9 30.40F MANNING FAIR 45 18 33 N7 30.38S COLUMBIA SUNNY 48 18 30 VRB6 30.38F SUMTER SUNNY 46 16 30 N7 30.35F FLORENCE SUNNY 45 17 32 N13 30.37F MYRTLE BEACH SUNNY 46 19 34 N12 30.38F N MYRTLE BEACH SUNNY 46 21 37 NW8 30.35F $$ GAZ063-065-086>088-099>101-113>116-118-119-134>141-150-092000- ...SOUTHEAST GEORGIA... CITY SKY/WX TMP DP RH WIND PRES REMARKS SAVANNAH ARPT SUNNY 53 18 25 MISG 30.36F HUNTER AAF SUNNY 54 27 35 NW8 30.33F FORT STEWART SUNNY 53 20 26 N3 30.34F STATESBORO SUNNY 51 24 35 NW6 30.38S SYLVANIA CLEAR N/A N/A N/A N8 30.38F CLAXTON FAIR 51 24 35 NW8 30.37F ...CSRA...CENTRAL AND FAR SOUTHEAST GEORGIA... CITY SKY/WX TMP DP RH WIND PRES REMARKS THOMSON SUNNY 48 23 36 CALM 30.43F AUGUSTA-BUSH SUNNY 50 15 24 NE8 30.39F AUGUSTA-DANIEL SUNNY 48 14 25 MISG 30.39F SWAINSBORO FAIR 50 21 32 N6 30.39S VIDALIA SUNNY 52 28 40 NW8 30.37F EASTMAN FAIR 51 -18 5 NE6 30.41F HAZLEHURST FAIR 53 22 29 N8 30.36F ALMA SUNNY 51 20 29 NW6 30.36F WAYCROSS SUNNY 56 24 29 NE6 30.35F JESUP FAIR 54 30 40 NE5 30.36S BAXLEY FAIR 52 28 40 CALM 30.36F BRUNSWICK SUNNY 55 28 35 NW6 30.35F SAINT SIMONS SUNNY 55 20 25 N10 30.34F $$ SCZ027-028-034-036>038-045-046-048>050-GAZ119-141-092000- ...LAKE AND SUPPLEMENTAL COASTAL OBSERVATIONS... STATION/POSITION TIME TEMP WIND PRES WAVE SWELL AIR SEA DIR/SP/G HT/PER HT/PER/DIR (UTC) (F) (DEG/KT/KT) (MB) (FT/S) (FT/S/D) WINYAH BAY 1845 45 360/ 8 1028.0S LAKE MURRAY 1920 46 10/ 2/ 7 1028.1 ACE BASIN NERRS 1845 50 360/ 4 1028.0F FORT PULASKI 1900 50 61 360/ 6/ 8 1027.8 SAPELO ISLAND 1900 54 10/ 8 1028.0 $$ ANZ835-935-AMZ111-154-330-350-352-354-370-450-454-472-092000- ...C-MAN AND BUOY OBSERVATIONS... STATION/POSITION TIME TEMP WIND PRES WAVE SWELL AIR SEA DIR/SP/G HT/PER HT/PER/DIR (UTC) (F) (DEG/KT/KT) (MB) (FT/S) (FT/S/D) BUOY 41004 1850 49 72 360/ 16/ 21 1027.0F 5/ 6 2/ 50/10 BUOY 41008 1850 50 63 360/ 14/ 16 1027.4F 4/ 6 2/ 80/ 9 FOLLY BEACH CMAN 1900 49 350/ 8/ 12 1028.3F CAPERS NEARSHORE 1908 47 60 360/ 8/ 14 1027.4F FRIPP NEARSHORE 1908 49 61 360/ 10/ 14 1027.3F STATION/POSITION TIME TEMP WIND PRES WAVE SWELL AIR SEA DIR/SP/G HT/PER HT/PER/DIR (UTC) (F) (DEG/KT/KT) (MB) (FT/S) (FT/S/D) 5E ST. MARYS GA 1900 65 N/A 4/ 5 FRYING PAN BUOY 1910 45 73 330/ 14/ 17 1027.2 BUOY 41025 1850 42 76 350/ 16/ 21 1026.0R 4/ 9 3/ 50/ 9 CAPE LOOKOUT NC 1900 42 350/ 13/ 16 1026.4F BUOY 41002 1850 60 73 350/ 17/ 23 1022.7R 6/ 7 2/ 70/11 BUOY 41010 NOT AVBL ST AUGUSTINE FL 1900 53 65 360/ 22/ 27 1027.4F $$

USA.gov is the U.S. government's official web portal to all federal, state and local government web resources and services.